This demonstration page uses our WeatherBlox Daily Observations layout. Learn more.

Left ArrowRight Arrow

36.17497, -115.13722

Hourly Observations for May 13, 2017

Temp ( °F °C ) Dew Point ( °F °C ) Humidity (%) Winds ( mph kmh ) Pressure ( in mb ) Visibility ( mi km ) Precip ( " mm )
12:53 am 00:53 Clear 70 21.1 34 1.1 27 27 WSW 18 30 29.67 1005 10 16 0.00 0.00
1:53 am 01:53 Clear 69 20.6 33 0.6 26 26 WSW 14 22 29.66 1004 10 16 0.00 0.00
2:53 am 02:53 Clear 67 19.4 32 0 27 27 WSW 17 28 29.65 1004 10 16 0.00 0.00
3:53 am 03:53 Clear 66 18.9 29 -1.7 25 25 WSW 29 46 29.62 1003 10 16 0.00 0.00
4:53 am 04:53 Clear 64 17.8 27 -2.8 25 25 WSW 24 39 29.63 1003 10 16 0.00 0.00
5:53 am 05:53 Sunny 63 17.2 25 -3.9 24 24 WSW 13 20 29.69 1005 10 16 0.00 0.00
6:53 am 06:53 Sunny 67 19.4 21 -6.1 17 17 NW 23 37 29.70 1006 10 16 0.00 0.00
7:53 am 07:53 Sunny 67 19.4 26 -3.3 21 21 NNW 25 41 29.73 1007 10 16 0.00 0.00
8:53 am 08:53 Sunny 70 21.1 23 -5 17 17 NNW 23 37 29.76 1008 10 16 0.00 0.00
9:53 am 09:53 Sunny 73 22.8 23 -5 15 15 N 20 31 29.78 1008 10 16 0.00 0.00
10:53 am 10:53 Sunny 75 23.9 18 -7.8 11 11 NNW 18 30 29.79 1009 10 16 0.00 0.00
11:53 am 11:53 Sunny 76 24.4 16 -8.9 10 10 NNE 8 13 29.80 1009 10 16 0.00 0.00
12:53 pm 12:53 Sunny 77 25 16 -8.9 10 10 VRB 3 6 29.78 1009 10 16 0.00 0.00
1:53 pm 13:53 Sunny 79 26.1 16 -8.9 9 9 W 5 7 29.77 1008 10 16 0.00 0.00
2:53 pm 14:53 Sunny 79 26.1 18 -7.8 10 10 VRB 3 6 29.75 1007 10 16 0.00 0.00
3:53 pm 15:53 Sunny 81 27.2 18 -7.8 9 9 WNW 9 15 29.71 1006 10 16 0.00 0.00
4:53 pm 16:53 Sunny 81 27.2 15 -9.4 8 8 S 8 13 29.70 1006 10 16 0.00 0.00
5:53 pm 17:53 Sunny 82 27.8 15 -9.4 8 8 Calm 29.68 1005 10 16 0.00 0.00
6:53 pm 18:53 Sunny 81 27.2 16 -8.9 9 9 SW 5 7 29.67 1005 10 16 0.00 0.00
7:53 pm 19:53 Clear 79 26.1 5 -15 6 6 SW 9 15 29.68 1005 10 16 0.00 0.00
8:53 pm 20:53 Clear 76 24.4 9 -12.8 7 7 WSW 8 13 29.69 1006 10 16 0.00 0.00
9:53 pm 21:53 Clear 74 23.3 11 -11.7 9 9 SE 3 6 29.70 1006 10 16 0.00 0.00
10:53 pm 22:53 Clear 71 21.7 13 -10.6 10 10 Calm 29.71 1006 10 16 0.00 0.00
11:53 pm 23:53 Clear 70 21.1 15 -9.4 12 12 SW 10 17 29.71 1006 10 16 0.00 0.00

Powered by AerisWeather